Content
SEND FEEDBACK

Daily
Averages
Monthly
Summary
Mexico

SAN BALTAZAR TETELA, PUEBLA


Home > North America > Mexico > Puebla
Elevation: 6759 feet     Latitude: 18 54N     Longitude: 098 10W

WEATHER
 
SELECT A DAY
Number of Records: 121,213;   Date Range: 1/1/95 - 9/21/14
 
SHARE

PRINT THIS DATA

[ ← Previous Day ]
WEATHER ALMANAC - FEBRUARY 10, 2013
[ Next Day → ]
[ °C ]   °F
Weather ElementAverageHighLow
Temperature60 °F75 °F (2:40 pm)39.2 °F (6:41 am)
Dewpoint35.1 °F47 °F (8:40 am)24.8 °F (1:40 am)
Humidity38.5 %70 % (6:41 am)18 % (2:40 pm)
Barometer30.17 in30.38 in (9:41 am)29.73 in (5:40 pm)
Wind Speed8 mph20.7 mph (1:45 pm)
Wind Gust27.6 mph (3:42 pm)
Weather ElementAverage
Visibility7.1 mi
Wind DirectionSW (223.9 °)

Weather ElementTotal
Precipitation---
Heating Degree Days7.9 (Base 65)
Growing Degree Days7.1 (Base 50)
Averaged from 27 records on February 10, 2013
WEATHER CONDITIONS BREAKOUT
WIND DIRECTION BREAKOUT
WEATHER BY HOUR - FEBRUARY 10, 2013
[ °C ]   °F
Local TimeTemperatureDewpointHumidityBarometerVisibilityWind DirectionWind SpeedGust SpeedPrecipitationEventsConditions
1:40 AM44.6 °F24.8 °F46 %30.31 in9.0 miNorth (360°)4.6 mphClear
2:40 AM42.8 °F26.6 °F53 %30.30 in9.0 miNNW (330°)6.9 mphClear
2:45 AM55.0 °F31.0 °F27 %29.79 in3.0 miCalm
5:45 AM50.0 °F40.0 °F60 %29.88 in3.0 miCalm
5:58 AM41.0 °F28.4 °F61 %30.32 in9.0 miWNW (290°)3.5 mphClear
6:41 AM39.2 °F30.2 °F70 %30.33 in8.0 miNNW (340°)5.8 mphClear
7:43 AM42.8 °F28.4 °F57 %30.36 in8.0 miNNW (330°)6.9 mphClear
8:40 AM58.0 °F47.0 °F59 %30.01 in3.0 miSE (140°)2.2 mphHaze
9:41 AM62.6 °F37.4 °F39 %30.38 in8.0 miNorth (360°)4.6 mphClear
10:44 AM68.0 °F42.8 °F40 %30.36 in6.0 miSouth (180°)15.0 mphClear
11:40 AM71.0 °F43.0 °F25 %29.97 in3.0 miSSE (160°)2.2 mphHaze
11:44 AM69.8 °F39.2 °F33 %30.34 in6.0 miSSW (200°)13.8 mphClear
12:40 PM69.8 °F39.2 °F33 %30.31 in8.0 miSouth (170°)18.4 mphClear
1:45 PM73.4 °F37.4 °F27 %30.28 in8.0 miSSE (160°)20.7 mphClear
2:40 PM75.0 °F40.0 °F18 %29.82 in3.0 miSouth (180°)6.7 mphHaze
2:41 PM73.4 °F33.8 °F23 %30.26 in8.0 miSouth (190°)19.6 mphClear
3:42 PM71.6 °F33.8 °F25 %30.24 in10.0 miSSE (160°)16.1 mph27.6 mphClear
4:46 PM71.6 °F33.8 °F25 %30.24 in10.0 miSouth (190°)15.0 mphClear
5:40 PM72.0 °F38.0 °F19 %29.73 in3.0 miSSE (160°)2.2 mphHaze
5:44 PM68.0 °F35.6 °F30 %30.25 in10.0 miSouth (180°)18.4 mphClear
6:42 PM62.6 °F33.8 °F34 %30.26 in10.0 miSouth (180°)10.4 mphClear
7:42 PM59.0 °F33.8 °F39 %30.29 in10.0 miSSE (160°)9.2 mphClear
8:44 PM57.2 °F35.6 °F44 %30.32 in10.0 miSouth (180°)3.5 mphClear
8:50 PM63.0 °F33.0 °F20 %29.74 in3.0 miCalm
9:40 PM51.8 °F35.6 °F54 %30.33 in10.0 miWest (270°)4.6 mphClear
10:41 PM51.8 °F33.8 °F50 %30.35 in10.0 miWest (280°)5.8 mphClear
11:50 PM56.0 °F32.0 °F28 %29.81 in3.0 miCalm
Hourly data recorded from MMPB, located miles away from San Baltazar Tetela, Puebla







STORIES FROM OUR PARTNERS